Location: Hylvaty SDH
(49.9612°N, 16.4057°E)
Time: 11:55:01
(UTC+01:00)

A-11 Canister half - Pass Details

Date: 08 October 2020
Orbit: 1526 x 1683 km, 47.3° (Epoch: 28 October)

Event Time Altitude Azimuth Distance (km) Brightness Sun altitude
Rises 01:55:28 0° 283° (WNW) 4,688 - -43.4°
Reaches altitude 10° 01:58:33 10° 280° (W) 3,713 - -43.2°
Maximum altitude 02:07:37 57° 205° (SSW) 1,795 - -42.5°
Drops below altitude 10° 02:16:56 10° 130° (SE) 3,806 - -41.7°
Exits shadow 02:18:26 - 129° (SE) 4,277 11.3 -41.6°
Sets 02:20:08 0° 127° (SE) 4,812 11.6 -41.4°
